This is the latest recevied weather packets stored in our database for station/object DM4XI-13. If no packets are shown the sender has not sent any weather packets the latest 10 day(s).
| Time | Temp. | Humidity | Pressure | Rain* | Wind** | Luminosity | Snow |
|---|---|---|---|---|---|---|---|
| 1777288048 | 16.67° C | 31% | 1019.4 hPa | 0 mm | 0.89 m/s, 203° | 631 W/m² | - |
| 1777287987 | 16.67° C | 29% | 1019.4 hPa | 0 mm | 0.89 m/s, 206° | 634 W/m² | - |
| 1777287926 | 16.67° C | 31% | 1019.3 hPa | 0 mm | 1.34 m/s, 151° | 637 W/m² | - |
| 1777287866 | 16.67° C | 33% | 1019.3 hPa | 0 mm | 0.89 m/s, 157° | 633 W/m² | - |
| 1777287805 | 16.67° C | 32% | 1019.3 hPa | 0 mm | 0.45 m/s, 158° | 631 W/m² | - |
| 1777287743 | 16.67° C | 31% | 1019.3 hPa | 0 mm | 0.89 m/s, 144° | 616 W/m² | - |
| 1777287682 | 16.67° C | 33% | 1019.4 hPa | 0 mm | 0.89 m/s, 128° | 637 W/m² | - |
| 1777287621 | 16.67° C | 32% | 1019.2 hPa | 0 mm | 1.79 m/s, 202° | 640 W/m² | - |
| 1777287560 | 16.67° C | 31% | 1019.2 hPa | 0 mm | 0.89 m/s, 177° | 641 W/m² | - |
| 1777287499 | 16.67° C | 30% | 1019.6 hPa | 0 mm | 1.34 m/s, 190° | 621 W/m² | - |
| 1777287438 | 16.67° C | 29% | 1019.5 hPa | 0 mm | 1.79 m/s, 164° | 530 W/m² | - |
| 1777287377 | 16.67° C | 30% | 1019.4 hPa | 0 mm | 0.45 m/s, 180° | 591 W/m² | - |
| 1777287316 | 16.11° C | 33% | 1019.4 hPa | 0 mm | 0.45 m/s, 145° | 603 W/m² | - |
| 1777287255 | 16.11° C | 33% | 1019.4 hPa | 0 mm | 0.45 m/s, 304° | 631 W/m² | - |
| 1777287195 | 16.11° C | 31% | 1019.5 hPa | 0 mm | 0.89 m/s, 171° | 638 W/m² | - |
| 1777287133 | 16.11° C | 33% | 1019.4 hPa | 0 mm | 0.45 m/s, 153° | 631 W/m² | - |
| 1777287072 | 16.11° C | 32% | 1019.3 hPa | 0 mm | 0.45 m/s, 162° | 635 W/m² | - |
| 1777287011 | 16.11° C | 31% | 1019.5 hPa | 0 mm | 0.45 m/s, 174° | 635 W/m² | - |
| 1777286950 | 16.11° C | 30% | 1019.5 hPa | 0 mm | 0.89 m/s, 175° | 629 W/m² | - |
| 1777286889 | 16.67° C | 32% | 1019.6 hPa | 0 mm | 1.79 m/s, 184° | 625 W/m² | - |
| 1777286828 | 16.67° C | 30% | 1019.8 hPa | 0 mm | 1.34 m/s, 187° | 627 W/m² | - |
| 1777286767 | 16.11° C | 31% | 1019.6 hPa | 0 mm | 1.34 m/s, 122° | 622 W/m² | - |
| 1777286706 | 16.11° C | 31% | 1019.7 hPa | 0 mm | 1.34 m/s, 140° | 626 W/m² | - |
| 1777286645 | 16.11° C | 31% | 1019.5 hPa | 0 mm | 1.34 m/s, 175° | 626 W/m² | - |
| 1777286584 | 16.11° C | 28% | 1019.7 hPa | 0 mm | 1.34 m/s, 158° | 622 W/m² | - |
* Rain latest hour (hover to see other rain measurements)
** Current wind speed in m/s (hover to see current wind gust speed)